Regional Weather Roundup
Issued by NWS

Home | Current Version | Previous Version | Graphics & Text | Print | Product List | Glossary On
Versions: 1 2 3 4 5 6 7 8 9 10 11 12 13 14 15 16 17 18 19 20 21 22 23 24 25 26 27 28 29 30 31 32 33 34 35 36 37 38 39 40 41 42 43 44 45 46 47 48 49 50
000
ASUS45 KBOI 250710
RWRID
WEATHER ROUNDUP FOR IDAHO
NATIONAL WEATHER SERVICE BOISE ID
100 AM MDT FRI JUL 25 2014

NOTE: "FAIR" INDICATES FEW OR NO CLOUDS BELOW 12000 FEET
WITH NO SIGNIFICANT WEATHER AND/OR OBSTRUCTIONS TO VISIBILITY

IDZ012-014-250800-
SOUTHWEST IDAHO


CITY           SKY/WX    TMP DP  RH WIND       PRES   REMARKS
BOISE          CLEAR     59  31  34 S3        30.06R
CALDWELL       CLEAR     61  36  39 NW5       30.08S
MOUNTAIN HOME  CLEAR     56  28  34 NW7       30.06R
$$

IDZ016-017-250800-
SOUTHCENTRAL IDAHO


CITY           SKY/WX    TMP DP  RH WIND       PRES   REMARKS
BURLEY         CLEAR     52  33  48 SW8       30.09S
JEROME         CLEAR     55  31  39 S9        30.11R
TWIN FALLS     CLEAR     58  25  28 S12       30.11R
$$

IDZ019>023-250800-
SOUTHEAST IDAHO


CITY           SKY/WX    TMP DP  RH WIND       PRES   REMARKS
IDAHO FALLS    CLEAR     59  35  40 S9        30.10R
POCATELLO      CLEAR     51  32  48 S7        30.11R
REXBURG        CLEAR     57  33  40 S7        30.11R
$$

IDZ006-010-011-018-031-032-250800-
CENTRAL IDAHO MOUNTAINS


CITY           SKY/WX    TMP DP  RH WIND       PRES   REMARKS
MCCALL         CLEAR     51  36  56 S3        30.15S
HAILEY         CLEAR     52  30  43 NW5       30.13S
STANLEY          N/A     38  24  57 S6        30.22S WCI  33
SALMON         CLEAR     61  36  39 SE6       30.09S
CHALLIS        CLEAR     57  18  21 W12       30.11S
$$

IDZ002-004-006-007-026-250800-
NORTHERN IDAHO


CITY           SKY/WX    TMP DP  RH WIND       PRES   REMARKS
LEWISTON       CLEAR     62  43  49 S3        30.08F
LOWELL           N/A     56  47  71 NW5       30.15R
COEUR D`ALENE  CLOUDY    61  48  63 SW8       30.07S
MULLAN PASS    CLOUDY    46  38  73 VRB5G17   30.18F
$$


USA.gov is the U.S. government's official web portal to all federal, state and local government web resources and services.